This is the latest recevied weather packets stored in our database for station/object SP9KB-13. If no packets are shown the sender has not sent any weather packets the latest 10 day(s).
| Time | Temp. | Humidity | Pressure | Rain* | Wind** | Luminosity | Snow |
|---|---|---|---|---|---|---|---|
| 1777542998 | 8.33° C | 41% | 1009.7 hPa | 0 mm | - | - | - |
| 1777542698 | 7.78° C | 41% | 1009.6 hPa | 0 mm | - | - | - |
| 1777542397 | 7.78° C | 40% | 1009.4 hPa | 0 mm | - | - | - |
| 1777542097 | 7.78° C | 43% | 1009.6 hPa | 0 mm | - | - | - |
| 1777541796 | 7.22° C | 41% | 1009.7 hPa | 0 mm | - | - | - |
| 1777541496 | 6.67° C | 42% | 1009.8 hPa | 0 mm | - | - | - |
| 1777541195 | 7.22° C | 43% | 1009.6 hPa | 0 mm | - | - | - |
| 1777540894 | 6.67° C | 46% | 1009.8 hPa | 0 mm | - | - | - |
| 1777540594 | 6.67° C | 44% | 1009.6 hPa | 0 mm | - | - | - |
| 1777540293 | 6.67° C | 45% | 1009.6 hPa | 0 mm | - | - | - |
| 1777539992 | 7.22° C | 43% | 1009.8 hPa | 0 mm | - | - | - |
| 1777539692 | 6.67° C | 45% | 1009.6 hPa | 0 mm | - | - | - |
| 1777539391 | 6.67° C | 47% | 1009.9 hPa | 0 mm | - | - | - |
| 1777539091 | 6.11° C | 46% | 1009.8 hPa | 0 mm | - | - | - |
| 1777538790 | 7.22° C | 44% | 1009.9 hPa | 0 mm | - | - | - |
| 1777538489 | 6.67° C | 42% | 1009.7 hPa | 0 mm | - | - | - |
| 1777538189 | 6.11° C | 43% | 1009.8 hPa | 0 mm | - | - | - |
| 1777537888 | 6.11° C | 44% | 1009.9 hPa | 0 mm | - | - | - |
| 1777537588 | 6.11° C | 44% | 1010 hPa | 0 mm | - | - | - |
| 1777537287 | 6.11° C | 41% | 1010 hPa | 0 mm | - | - | - |
| 1777536987 | 6.11° C | 44% | 1010.2 hPa | 0 mm | - | - | - |
| 1777536686 | 6.67° C | 42% | 1010.1 hPa | 0 mm | - | - | - |
| 1777536385 | 5.56° C | 45% | 1010.1 hPa | 0 mm | - | - | - |
| 1777536085 | 5.56° C | 46% | 1010.4 hPa | 0 mm | - | - | - |
| 1777535784 | 5° C | 51% | 1010.1 hPa | 0 mm | - | - | - |
* Rain latest hour (hover to see other rain measurements)
** Current wind speed in m/s (hover to see current wind gust speed)